Location: Newark
(41.0400°S, 62.7845°W)
Time: 14:03:28
(UTC+00:00)

STARLINK-3086 - Pass Details

Date: 04 June 2022
Orbit: 570 x 574 km, 70.0° (Epoch: 30 June)

Event Time Altitude Azimuth Distance (km) Brightness Sun altitude
Rises 09:38:55 0° 30° (NNE) 2,777 7.8 -20.1°
Reaches altitude 10° 09:43:28 10° 75° (ENE) 1,895 7.6 -19.3°
Maximum altitude 09:43:48 10° 80° (E) 1,890 7.6 -19.2°
Drops below altitude 10° 09:44:09 10° 85° (E) 1,897 7.6 -19.1°
Sets 09:48:43 0° 130° (SE) 2,810 7.8 -18.3°
